EW1708 Weather Reports


Display with metric or nautical units.
time (UTC)temp
F
wind
direction
speed
MPH
gust
MPH
rain 1hr
in
rain 24hr
in
rain mn
in
humidity
%
barometer
mb
20260906042921 73 80 4.0 8.0 0.00 0.03 0.03 84 1015.5
20260906041931 74 80 6.0 8.0 0.00 0.03 0.03 84 1015.5
20260906040941 73 84 5.0 8.0 0.00 0.03 0.03 85 1015.6
20260906035914 73 76 3.0 7.0 0.00 0.03 0.03 85 1015.5
20260906034936 73 71 3.0 6.0 0.00 0.03 0.03 85 1015.5
20260906033925 73 67 4.0 8.0 0.00 0.03 0.03 84 1015.4
20260906032903 73 62 6.0 8.0 0.00 0.03 0.03 84 1015.4
20260906030741 74 61 6.0 9.0 0.00 0.03 0.03 82 1015.4
20260906025732 74 59 7.0 9.0 0.00 0.03 0.03 81 1015.3
20260906024742 74 65 6.0 8.0 0.00 0.03 0.03 81 1015.4
20260906022629 75 60 7.0 11.0 0.00 0.03 0.03 81 1015.0
20260906021608 74 57 6.0 10.0 0.00 0.03 0.03 80 1014.8
20260906020547 75 57 5.0 7.0 0.00 0.03 0.03 81 1014.9
20260906015520 75 54 4.0 6.0 0.00 0.03 0.03 81 1014.7
20260906014540 75 59 3.0 6.0 0.00 0.03 0.03 80 1014.6
20260906013517 76 59 3.0 6.0 0.00 0.03 0.03 79 1014.6
20260906012513 76 63 3.0 4.0 0.00 0.03 0.03 78 1014.5
20260906011454 77 67 2.0 3.0 0.00 0.03 0.03 78 1014.4
20260906005323 77 67 1.0 2.0 0.00 0.03 0.03 76 1014.2
20260906004311 78 67 0.0 1.0 0.00 0.03 0.03 77 1014.2
20260906003241 78 67 0.0 2.0 0.00 0.03 0.03 77 1014.2
20260906002249 78 67 1.0 2.0 0.00 0.03 0.03 76 1014.1
20260905232759 79 77 0.0 0.0 0.00 0.03 0.03 73 1014.0
20260905231745 79 77 0.0 0.0 0.00 0.03 0.03 73 1014.0
20260905225543 79 77 0.0 0.0 0.00 0.03 0.03 74 1013.9
20260905224555 79 82 1.0 2.0 0.00 0.03 0.03 71 1013.7
20260905223523 79 82 2.0 2.0 0.00 0.03 0.03 69 1013.6
20260905221423 80 135 0.0 0.0 0.00 0.03 0.03 69 1013.6
20260905220357 80 135 0.0 0.0 0.00 0.03 0.03 68 1013.7
20260905215413 80 135 1.0 3.0 0.00 0.03 0.03 69 1013.7
20260905214412 79 123 2.0 6.0 0.00 0.03 0.03 68 1013.7
20260905213357 80 116 2.0 6.0 0.00 0.03 0.03 68 1013.7
20260905211223 79 115 3.0 7.0 0.00 0.03 0.03 69 1013.8
20260905210148 79 115 2.0 6.0 0.00 0.03 0.03 69 1013.9
20260905205129 79 103 2.0 6.0 0.00 0.03 0.03 68 1013.9
20260905204108 79 165 1.0 4.0 0.00 0.03 0.03 71 1014.1
20260905203126 79 161 1.0 5.0 0.00 0.03 0.03 70 1014.2
20260905202117 79 153 2.0 5.0 0.00 0.03 0.03 69 1014.2
20260905201131 79 153 1.0 7.0 0.00 0.03 0.03 69 1014.2
20260905200057 79 130 3.0 7.0 0.00 0.03 0.03 68 1014.3
20260905193923 78 108 2.0 7.0 0.00 0.03 0.03 69 1014.3
20260905192923 78 107 3.0 7.0 0.00 0.03 0.03 70 1014.2
20260905190744 78 136 5.0 11.0 0.00 0.03 0.03 68 1014.2
20260905185742 79 130 5.0 10.0 0.00 0.03 0.03 68 1014.2
20260905184746 79 115 5.0 8.0 0.00 0.03 0.03 67 1014.3
20260905183713 78 148 6.0 9.0 0.00 0.03 0.03 69 1014.2
20260905182649 77 139 5.0 13.0 0.00 0.03 0.03 70 1014.2
20260905181626 77 147 7.0 13.0 0.00 0.03 0.03 70 1014.2
20260905180604 77 153 6.0 14.0 0.00 0.03 0.03 69 1014.4
20260905174444 78 150 6.0 17.0 0.00 0.03 0.03 68 1014.3
20260905172335 77 119 9.0 20.0 0.00 0.03 0.03 71 1014.1
20260905171348 77 136 11.0 20.0 0.00 0.03 0.03 69 1014.3
20260905170335 77 127 9.0 17.0 0.00 0.03 0.03 69 1014.2
20260905165318 76 119 9.0 16.0 0.00 0.03 0.03 71 1014.3
20260905163136 76 135 9.0 18.0 0.00 0.03 0.03 72 1014.3
20260905162136 75 136 9.0 14.0 0.00 0.03 0.03 74 1014.3
20260905161105 75 144 8.0 13.0 0.00 0.03 0.03 75 1014.3
20260905160038 74 149 7.0 14.0 0.00 0.03 0.03 76 1014.3
20260905155020 73 140 7.0 14.0 0.00 0.03 0.03 78 1014.3
20260905154013 73 130 7.0 13.0 0.00 0.03 0.03 77 1014.4
20260905153016 72 100 8.0 13.0 0.00 0.03 0.03 80 1014.3
20260905152007 72 118 7.0 12.0 0.00 0.03 0.03 80 1014.3
20260905150934 71 101 7.0 12.0 0.00 0.03 0.03 81 1014.3
20260905145911 71 108 7.0 12.0 0.00 0.03 0.03 82 1014.4
20260905144931 70 104 8.0 13.0 0.00 0.03 0.03 82 1014.3
20260905143928 70 126 7.0 13.0 0.00 0.03 0.03 82 1014.3
20260905142901 70 115 5.0 9.0 0.00 0.03 0.03 84 1014.4
20260905141845 68 78 4.0 10.0 0.00 0.03 0.03 87 1014.2
20260905140904 67 87 7.0 10.0 0.00 0.03 0.03 88 1014.2
20260905135848 67 91 5.0 9.0 0.00 0.03 0.03 89 1014.1
20260905134910 66 83 5.0 9.0 0.00 0.03 0.03 91 1014.0
20260905133845 65 84 3.0 7.0 0.00 0.03 0.03 92 1013.9
20260905132813 64 70 2.0 4.0 0.00 0.03 0.03 93 1013.9
20260905131807 64 71 1.0 3.0 0.00 0.03 0.03 93 1013.8
20260905130753 63 76 0.0 2.0 0.00 0.03 0.03 93 1013.7
20260905125813 63 76 0.0 0.0 0.00 0.03 0.03 92 1013.3
20260905124813 63 77 0.0 0.0 0.00 0.03 0.03 92 1013.1
20260905123833 63 77 0.0 0.0 0.00 0.03 0.03 92 1013.0
20260905122841 63 77 0.0 0.0 0.00 0.03 0.03 91 1012.8
20260905121818 63 78 1.0 0.0 0.00 0.03 0.03 91 1012.6
20260905120822 64 82 3.0 6.0 0.00 0.03 0.03 91 1012.4
20260905115803 64 89 4.0 8.0 0.00 0.03 0.03 90 1012.2
20260905114804 64 83 5.0 9.0 0.00 0.03 0.03 90 1012.3
20260905113825 64 79 6.0 9.0 0.00 0.03 0.03 89 1012.0
20260905112755 65 82 4.0 7.0 0.00 0.03 0.03 88 1011.9
20260905111725 65 107 5.0 10.0 0.00 0.03 0.03 87 1011.6
20260905110703 65 102 7.0 12.0 0.00 0.03 0.03 86 1011.4
20260905105719 65 117 7.0 12.0 0.00 0.03 0.03 86 1011.5
20260905104744 66 132 7.0 13.0 0.00 0.03 0.03 85 1011.5
20260905103738 66 107 8.0 14.0 0.00 0.03 0.03 84 1011.4
20260905102707 66 126 8.0 13.0 0.00 0.03 0.03 84 1011.3
20260905101645 66 107 9.0 14.0 0.00 0.03 0.03 84 1011.3
20260905095501 67 106 7.0 11.0 0.00 0.03 0.03 84 1011.5
20260905094438 67 119 6.0 11.0 0.00 0.03 0.03 84 1011.7
20260905093443 68 141 8.0 13.0 0.00 0.03 0.03 84 1011.4
20260905092422 68 98 9.0 15.0 0.00 0.03 0.03 84 1011.2
20260905091446 68 105 10.0 15.0 0.00 0.03 0.03 83 1011.0
20260905090509 68 113 8.0 14.0 0.00 0.03 0.03 83 1010.9
20260905085509 67 100 9.0 14.0 0.00 0.03 0.03 83 1010.8
20260905083437 68 108 11.0 21.0 0.00 0.03 0.03 82 1010.9
20260905082438 68 112 10.0 17.0 0.00 0.03 0.03 85 1011.2
20260905080305 66 123 9.0 18.0 0.00 0.03 0.03 87 1011.3
20260905075237 67 77 7.0 10.0 0.00 0.03 0.03 82 1011.6
20260905074256 67 104 8.0 14.0 0.00 0.03 0.03 86 1011.4
20260905072129 67 74 7.0 12.0 0.00 0.03 0.03 90 1011.7
20260905071059 68 84 7.0 15.0 0.00 0.03 0.03 89 1012.5
20260905070043 68 85 10.0 16.0 0.00 0.03 0.03 90 1012.3
20260905065040 68 113 10.0 16.0 0.03 0.03 0.03 90 1011.7
20260905064017 69 80 6.0 11.0 0.07 0.03 0.03 90 1012.0
20260905063028 69 117 5.0 13.0 0.10 0.02 0.02 89 1012.7
20260905060940 70 113 7.0 12.0 0.00 0.00 0.00 86 1012.6
20260905054851 70 166 6.0 16.0 0.00 0.00 0.00 85 1013.0
20260905053850 70 96 10.0 16.0 0.00 0.00 0.00 84 1012.1
20260905052822 70 96 9.0 16.0 0.00 0.00 0.00 84 1011.8
20260905051751 70 95 11.0 22.0 0.00 0.00 0.00 84 1011.9
20260905045610 70 93 11.0 17.0 0.00 0.00 0.00 84 1011.7
20260905044558 70 91 12.0 19.0 0.00 0.00 0.00 84 1011.5